Total_Precipitation_Accumulation
1.49 2.10 1.60 1.27 2.14 2.66 2.54 2.10 2.56 2.38 2.57 1.66 1.57 1.48 2.07 2.71 1.41 0.83 0.61 0.63 0.49 0.68 0.93 0.64 0.94 0.42 0.66 0.93 0.90 1.35 1.09 0.81 0.60 0.63 1.34 1.43 0.82 0.64 0.56 0.49 0.50 0.19 0.20 0.27 0.51 0.52 0.99 1.30 0.75 0.74 0.41 0.55 0.57 0.36 0.46 0.65 0.75 0.93 1.02 1.10 1.06 0.80 0.89 0.70 1.02 1.19 1.75 0.86 1.22 1.32 2.38 2.10 1.72 1.07
1.97 1.82 2.20 1.47 1.34 2.04 1.95 1.57 1.38 1.57 1.50 1.58 0.96 0.84 0.96 1.29 0.98 0.95 0.89 0.64 0.43 0.62 0.47 0.55 0.64 0.76 1.00 0.82 1.14 0.62 1.20 0.34 0.47 1.28 1.25 1.20 0.78 0.78 0.77 0.77 0.61 0.38 0.41 0.83 0.52 0.80 1.02 1.37 1.05 0.44 0.43 0.41 0.77 0.61 0.50 0.51 0.84 0.48 0.65 0.42 0.57 1.00 1.01 0.88 1.30 1.43 1.05 1.48 0.80 0.76 0.95 0.74 0.80 1.03
1.12 1.07 1.20 1.17 1.39 1.64 1.88 2.06 1.15 1.07 1.13 1.32 1.11 1.19 1.24 1.18 0.98 1.13 1.30 0.95 0.49 0.48 0.53 0.95 0.49 0.63 1.00 0.83 1.09 1.01 0.90 0.49 0.51 0.92 1.19 0.85 0.52 0.87 0.86 0.83 0.47 0.47 0.33 0.43 0.79 1.34 1.25 0.31 0.42 0.53 0.72 0.86 0.83 1.03 0.43 0.64 0.55 0.43 0.66 1.17 0.49 0.51 1.59 1.72 1.33 1.11 1.18 1.20 0.95 0.65 0.78 0.82 0.87 0.74
1.04 1.08 1.08 0.85 1.31 1.22 1.04 1.12 1.08 1.15 0.95 0.84 1.21 1.06 1.10 0.87 1.32 1.86 1.50 1.07 0.93 0.60 1.32 0.55 0.50 0.54 0.79 1.32 1.14 1.21 0.87 0.75 1.03 1.68 1.39 0.89 1.53 1.85 1.49 0.91 0.50 0.39 0.63 0.60 0.46 0.60 0.72 1.00 0.85 1.52 1.22 1.32 1.30 0.95 0.54 0.45 0.41 0.47 0.74 0.70 0.43 0.56 0.85 0.91 1.00 0.73 0.73 1.24 1.13 1.40 1.14 0.85 1.00 0.96
0.80 0.94 0.94 0.82 0.74 0.95 0.94 0.73 0.87 0.74 0.92 1.34 1.15 0.86 1.05 0.86 1.03 1.37 1.76 1.74 1.25 0.84 0.83 0.77 0.68 0.57 0.57 0.74 1.06 1.23 1.04 0.52 0.91 1.62 1.27 0.88 1.63 1.21 0.76 0.83 0.51 0.51 0.43 0.50 0.54 0.48 0.68 0.93 1.05 1.05 1.59 1.79 0.92 0.45 0.64 0.67 0.43 0.41 0.40 0.42 0.32 0.55 0.55 0.82 1.15 0.68 0.55 0.63 0.62 0.48 0.95 1.01 0.73 0.73
0.71 1.09 1.40 0.78 0.53 0.56 0.71 0.65 0.78 0.89 1.00 1.35 1.24 0.94 1.00 1.23 1.23 1.95 2.03 1.47 1.35 1.08 1.08 1.11 1.18 0.74 0.80 0.83 0.49 0.55 0.87 0.78 0.24 1.12 0.66 1.48 1.96 1.31 0.57 0.53 0.83 0.58 0.50 0.42 0.46 0.64 0.88 0.76 0.82 1.62 0.85 1.61 1.67 0.52 0.58 0.34 0.34 0.32 0.47 0.63 0.45 0.37 0.50 0.44 0.82 0.47 0.58 0.76 0.69 0.65 0.78 0.68 0.47 0.44
1.21 1.00 1.00 0.74 0.67 1.08 1.02 0.60 1.13 1.05 1.05 1.24 1.07 1.11 1.58 1.85 1.94 1.93 2.56 2.15 1.90 1.26 1.12 0.74 0.71 0.59 1.01 0.96 1.16 0.69 0.68 0.94 1.50 0.35 0.73 1.51 1.11 1.36 0.61 0.66 1.16 0.66 0.56 0.45 0.43 0.60 1.16 0.57 1.06 1.25 1.50 1.06 0.88 0.72 0.41 0.49 0.49 0.54 0.36 0.27 0.55 0.41 0.47 0.65 0.72 0.83 0.66 0.54 0.90 0.68 1.10 0.83 0.91 1.02
1.06 1.13 0.89 0.73 0.70 0.78 0.57 0.48 0.70 0.66 0.72 0.79 1.16 1.44 1.37 1.20 1.58 1.48 1.79 2.09 1.96 1.58 1.04 0.99 1.08 0.76 0.65 1.23 0.59 1.74 1.65 1.81 1.23 1.03 1.91 1.92 1.94 1.14 1.09 1.42 0.93 0.44 0.76 0.89 0.34 0.39 0.45 0.58 0.87 1.38 1.19 1.28 1.07 1.13 0.76 0.55 0.79 0.71 1.19 0.31 0.22 0.25 0.34 0.45 0.47 0.78 1.20 0.82 0.60 0.67 0.79 1.02 1.26 0.96
0.94 1.10 0.77 0.59 0.85 0.71 0.68 0.57 0.89 0.96 1.00 1.08 1.43 1.55 1.13 1.45 1.64 1.93 1.42 1.70 2.26 1.68 1.10 0.97 1.08 1.38 1.26 0.92 1.01 1.33 1.68 1.67 2.41 2.40 2.21 1.74 1.10 1.19 0.93 0.58 0.61 0.49 0.46 0.75 0.81 0.64 0.38 0.48 0.83 0.63 0.37 1.08 0.74 0.60 0.90 0.48 0.44 0.49 0.69 0.95 1.21 0.97 0.90 0.73 0.87 0.81 0.71 0.47 0.51 0.43 0.54 0.55 0.81 0.75
1.55 0.99 0.69 0.75 0.81 0.90 1.01 0.99 0.93 1.36 1.56 1.81 2.15 1.79 2.29 2.40 1.71 1.82 1.40 1.69 1.84 1.80 1.63 1.61 1.34 1.21 1.10 1.17 1.08 1.36 1.22 1.68 1.82 1.86 1.59 1.40 1.28 0.93 1.40 0.87 0.66 0.64 0.82 0.91 1.12 1.86 1.71 0.52 0.75 2.15 1.41 0.99 0.73 0.99 0.60 0.75 0.58 0.65 0.51 0.67 0.62 0.62 0.57 0.61 0.53 0.45 0.42 0.69 0.54 0.65 0.71 0.84 0.82 1.41
1.58 1.57 1.45 1.36 1.33 1.56 1.63 1.52 1.79 1.97 1.82 1.61 1.51 1.88 2.02 1.69 2.45 2.26 2.01 1.97 1.97 2.26 2.15 1.57 1.37 0.99 1.07 1.27 1.36 0.98 1.36 3.22 2.54 1.90 1.80 1.40 0.93 0.92 1.26 1.28 1.03 0.87 0.70 0.70 0.89 0.73 0.95 1.55 0.94 0.92 0.77 0.44 1.28 0.80 1.44 0.78 0.57 0.45 0.74 0.89 0.70 0.75 0.56 0.52 0.60 1.06 0.74 0.50 0.61 0.66 0.50 0.67 0.65 0.52
1.80 1.81 1.88 2.24 1.91 1.34 1.71 1.50 1.49 1.25 1.67 1.71 2.84 2.50 2.14 1.83 2.13 1.65 1.91 1.88 1.87 2.02 1.78 1.35 1.65 1.43 1.57 1.68 1.66 2.16 2.05 2.72 2.31 1.65 1.85 1.08 0.99 1.42 2.28 1.40 0.59 0.82 1.18 1.13 0.96 1.11 1.03 1.23 0.80 0.80 0.74 1.03 1.02 1.52 0.73 0.50 0.77 0.62 0.58 0.59 0.49 0.80 0.79 0.80 0.59 0.62 0.64 0.54 0.58 0.98 1.10 1.02 0.76 0.87
2.05 2.20 1.59 1.85 1.27 1.44 2.14 1.29 1.25 0.93 0.84 1.30 1.60 1.31 1.12 1.55 2.12 1.87 1.68 2.57 1.70 2.33 1.47 1.88 1.69 1.73 1.76 1.62 1.68 1.40 1.65 1.34 1.06 1.75 1.51 1.58 1.70 2.57 3.05 1.58 1.05 1.10 0.89 0.80 0.99 1.22 0.95 1.11 1.06 1.10 1.50 1.64 1.72 1.10 1.42 0.94 0.74 0.82 0.49 0.74 0.80 1.04 1.44 1.52 0.99 0.81 0.85 0.79 0.53 0.55 0.79 1.20 0.93 0.77
1.87 1.90 2.06 2.38 1.39 1.01 1.07 0.97 0.80 0.54 0.53 1.05 1.82 1.08 1.24 1.37 1.23 1.34 1.27 1.40 1.91 1.49 1.46 1.50 1.08 1.07 1.15 0.98 0.96 1.03 1.47 2.10 2.49 1.85 1.47 1.22 1.66 2.65 3.32 2.39 0.87 0.77 1.01 1.02 0.91 0.86 0.95 1.63 2.09 1.77 1.41 1.20 1.36 1.35 1.15 1.70 1.19 1.01 1.00 0.90 1.04 0.96 0.93 1.44 1.65 1.21 1.19 1.11 1.01 0.81 0.52 0.59 0.76 1.02
1.53 1.35 1.37 1.38 1.03 0.77 0.65 0.81 0.46 0.62 0.60 1.16 1.04 1.17 1.30 1.09 1.06 1.60 1.46 1.63 1.31 1.29 1.37 0.94 1.36 1.59 1.10 1.16 0.94 0.97 0.97 1.24 1.53 1.19 1.29 1.68 1.52 1.79 1.94 1.70 0.85 0.67 0.73 0.96 1.05 1.12 0.78 1.38 2.44 1.89 1.75 2.32 1.49 1.07 0.85 0.82 0.85 0.75 0.96 1.12 0.80 0.87 0.83 1.06 1.94 1.74 1.08 1.13 1.20 1.49 1.53 1.09 1.21 1.17
1.69 1.35 1.21 0.96 0.84 0.97 1.00 0.64 0.62 0.90 0.65 0.71 0.69 0.55 0.50 0.73 1.12 0.98 1.27 1.51 1.15 0.96 1.10 0.96 0.86 1.13 1.13 0.87 0.81 0.89 1.02 0.97 1.11 1.77 2.11 1.48 1.55 2.02 1.75 1.17 1.04 1.30 1.12 1.24 1.42 1.48 1.19 1.29 2.30 1.94 1.59 1.42 2.45 2.28 1.54 0.99 0.78 0.79 0.92 1.32 1.45 1.58 1.40 1.23 1.31 1.24 1.35 1.36 1.09 1.11 1.07 0.95 1.17 1.41
1.37 1.26 1.08 1.53 1.43 0.82 1.16 1.33 1.05 0.98 0.73 0.60 0.70 1.20 0.59 0.68 0.94 0.91 0.91 0.79 1.46 1.12 1.25 1.14 0.95 0.69 0.81 0.82 0.90 0.99 0.84 0.92 2.40 2.42 2.21 1.75 1.69 1.53 1.63 0.85 0.88 0.94 1.51 2.73 2.18 1.67 1.34 1.03 1.27 1.73 1.21 1.47 1.43 1.45 1.29 1.31 1.55 1.08 0.93 0.81 1.22 1.16 1.48 1.65 1.63 1.57 1.78 3.02 2.09 1.55 1.52 1.31 1.08 1.20
1.49 1.37 1.11 1.24 1.28 1.10 1.10 1.65 1.65 1.34 1.29 1.09 1.79 1.39 1.35 1.00 0.77 0.66 0.79 0.70 0.68 1.18 1.18 1.23 1.16 0.71 0.87 1.01 0.86 0.79 1.00 1.71 1.88 1.89 1.82 1.88 1.78 1.93 2.20 2.49 2.56 2.84 1.64 2.17 2.27 2.26 1.78 1.47 1.19 1.21 1.47 1.41 1.50 2.09 2.97 2.38 1.71 1.36 1.30 1.53 1.69 1.85 2.48 2.10 2.43 2.07 2.14 2.14 2.08 2.27 2.09 1.89 1.83 1.38
2.26 1.93 1.23 1.28 1.48 1.76 1.84 1.25 1.26 1.13 0.93 1.25 1.31 1.08 0.99 0.92 1.23 1.14 1.27 1.06 1.05 1.18 1.46 1.33 1.36 1.02 0.87 1.09 1.11 1.17 1.51 1.71 2.26 2.52 3.50 3.81 4.98 3.72 3.11 2.63 2.78 2.28 4.50 3.14 2.50 2.35 1.74 2.01 1.55 1.78 2.04 2.06 2.56 2.10 1.94 1.65 1.64 1.84 1.70 1.51 1.49 1.58 1.78 2.01 1.99 2.02 1.96 2.19 2.60 2.33 2.19 2.13 2.00 1.48
1.92 2.22 2.07 1.61 1.46 2.28 1.99 1.32 1.34 1.12 1.32 1.17 1.18 1.08 1.14 1.19 0.95 1.46 0.73 0.53 0.59 0.96 1.51 1.56 2.71 2.72 1.45 0.81 1.54 1.69 1.67 1.80 3.22 3.66 4.06 4.42 4.38 3.58 2.98 2.33 1.83 1.75 2.02 2.55 2.82 3.14 1.98 1.83 1.97 2.22 2.36 2.04 2.25 2.29 2.55 1.99 1.81 1.72 1.67 1.44 1.60 1.60 1.47 1.52 1.53 1.84 2.02 2.43 2.12 2.05 2.23 2.59 2.31 2.35
1.52 1.93 2.30 2.40 2.17 1.63 2.72 1.75 0.81 1.14 0.97 1.40 1.31 1.18 1.64 1.19 1.23 1.46 1.53 1.02 0.69 0.74 0.66 0.76 0.86 0.84 0.92 1.27 1.30 1.60 1.48 2.17 1.69 2.28 2.77 3.19 3.26 3.24 3.13 2.28 1.68 1.66 1.35 1.83 1.85 2.24 2.35 2.11 2.03 1.98 2.11 2.09 2.40 2.34 2.60 2.56 2.01 1.96 1.95 1.95 1.94 1.88 2.01 1.88 2.00 1.97 2.03 2.03 2.20 2.29 2.24 2.50 2.34 2.70
2.63 2.25 1.31 1.25 1.77 1.91 1.82 0.99 0.91 0.89 1.37 1.26 1.66 1.57 1.36 1.70 1.49 1.42 1.12 0.98 1.14 1.04 0.84 0.81 0.75 0.76 0.82 0.97 1.28 1.35 1.57 2.00 1.90 2.29 2.38 2.12 2.24 2.61 2.40 2.48 2.29 1.81 1.64 1.70 1.74 2.41 2.08 2.06 2.13 2.07 2.12 2.05 2.71 2.89 2.78 2.56 2.66 2.60 2.48 2.52 2.23 2.44 2.24 2.15 1.99 2.08 1.95 1.90 2.07 2.26 2.06 1.96 2.17 2.18
2.33 2.70 1.48 1.27 1.39 1.60 1.68 1.30 1.22 0.72 1.12 1.64 1.58 1.47 1.40 1.21 1.27 1.35 1.84 1.81 1.17 0.83 0.86 1.28 1.31 1.04 1.31 2.26 1.81 1.75 1.38 1.86 2.10 2.13 2.06 2.40 2.60 2.02 2.34 2.34 2.09 2.75 2.54 2.29 1.93 2.01 2.19 1.86 2.01 1.75 2.24 2.52 2.79 2.38 2.39 2.59 2.68 2.52 2.92 2.99 3.12 2.88 2.38 2.17 2.18 2.20 2.08 2.08 2.07 2.09 2.09 2.02 2.44 2.80
1.15 1.17 1.34 1.55 0.97 1.14 1.20 0.96 0.77 0.72 0.70 0.98 1.31 1.81 1.83 2.05 2.01 1.09 1.17 1.57 1.89 1.53 1.55 1.44 1.04 1.48 1.63 1.49 1.65 1.90 1.87 2.16 2.30 2.22 2.18 1.88 1.98 2.11 2.25 2.07 2.20 2.28 2.52 2.36 2.21 2.68 2.27 2.17 1.95 2.04 2.09 2.04 2.27 2.62 2.30 2.23 2.25 2.44 2.65 2.78 3.34 3.25 3.26 2.73 2.40 2.36 2.44 2.34 2.17 2.30 2.46 2.39 2.03 2.08
1.54 1.73 0.95 1.20 0.91 1.20 1.14 1.25 0.94 1.28 0.95 0.82 1.24 1.28 1.61 1.77 2.14 1.06 1.82 1.67 1.23 1.75 1.56 1.39 1.10 1.27 1.69 1.65 1.61 1.89 1.70 1.70 1.53 1.88 2.18 2.56 2.63 2.51 2.76 2.52 2.47 2.10 2.16 2.45 2.82 3.82 3.25 2.35 2.15 1.99 2.27 2.29 2.09 1.99 2.17 1.92 2.30 2.15 2.57 2.35 2.69 3.43 3.12 3.14 2.92 2.91 2.63 2.46 2.42 2.30 2.49 2.74 2.86 2.32
1.60 1.25 1.42 1.18 1.18 1.09 1.03 1.02 1.26 1.06 1.03 0.95 1.50 1.05 0.89 1.34 1.57 1.69 1.40 1.41 1.37 1.03 1.45 1.62 1.57 1.36 1.18 1.19 1.36 1.23 1.38 1.52 1.92 2.05 2.13 2.68 2.97 2.50 2.53 2.60 3.10 2.51 2.38 2.13 2.02 3.25 3.19 2.87 2.49 2.30 2.63 2.23 2.78 2.26 1.98 2.00 2.12 1.81 1.78 2.09 2.17 2.40 2.35 2.58 2.55 2.22 2.36 2.61 2.66 2.76 2.63 2.68 2.83 3.11
1.26 1.31 1.64 1.89 1.76 1.86 1.50 1.27 0.92 0.75 0.70 0.81 0.90 0.73 0.70 0.92 1.11 1.23 1.88 1.83 1.71 1.62 1.55 1.50 1.67 1.57 1.44 1.17 1.44 1.37 1.21 1.36 1.37 1.28 1.34 1.99 2.20 2.22 2.37 2.51 2.94 2.70 2.61 2.81 2.90 3.25 3.25 2.87 2.61 2.14 2.48 2.85 2.49 2.29 2.26 2.15 2.25 2.06 1.94 2.15 1.82 1.85 1.78 1.90 2.08 2.13 2.16 1.85 2.15 2.01 1.96 2.08 2.10 2.62
1.46 1.73 1.61 1.51 1.48 1.39 1.27 1.25 0.97 0.77 0.81 0.94 0.69 0.67 0.84 1.39 1.61 2.00 2.13 2.22 2.11 1.70 1.50 1.63 1.52 1.49 1.52 1.60 1.54 1.44 1.22 1.25 1.53 1.44 1.49 2.11 2.37 2.43 2.22 2.13 2.17 2.45 2.86 2.94 3.26 3.03 2.87 2.49 2.36 2.51 2.31 2.44 2.46 2.23 2.04 1.97 1.93 2.15 2.17 1.86 2.27 2.11 1.97 1.79 1.73 1.97 2.15 2.21 2.14 2.29 2.52 2.67 2.68 2.43
0.96 1.05 1.00 0.97 0.95 1.38 1.43 1.19 1.71 1.26 0.87 1.08 1.40 2.01 2.34 1.84 1.28 1.08 1.30 1.35 1.38 1.63 1.58 1.69 1.56 1.51 1.53 1.62 1.83 1.80 1.47 1.44 1.36 1.53 1.97 2.08 2.06 2.29 1.84 1.87 2.21 2.42 2.47 2.60 2.88 2.99 2.68 2.27 2.20 2.52 2.35 2.08 2.15 2.03 2.45 2.11 2.14 2.20 2.15 2.37 2.58 2.58 2.19 2.17 2.16 2.02 1.94 1.97 2.12 2.14 2.34 2.43 2.35 2.49
0.72 1.05 1.03 0.89 0.94 2.00 2.14 2.55 2.36 2.55 2.72 1.92 1.41 1.21 1.00 2.39 2.06 1.43 1.01 1.10 0.98 1.26 1.31 1.43 1.47 1.54 1.42 1.43 1.49 1.35 1.75 1.86 2.09 1.83 1.66 1.72 2.09 2.08 1.93 1.92 2.03 2.05 2.15 2.37 2.44 2.17 2.30 2.25 2.28 2.07 2.23 2.04 2.29 2.36 2.53 2.67 2.14 2.06 2.34 2.81 2.50 2.36 2.69 2.35 2.12 2.09 2.16 2.30 2.30 2.14 2.78 2.52 2.53 2.44
1.23 0.88 1.37 2.46 1.84 2.10 1.60 1.48 1.36 2.45 1.91 1.84 2.20 1.14 1.59 2.21 1.64 1.15 1.15 1.08 1.06 1.17 1.18 1.15 1.16 1.31 1.38 1.92 1.52 1.42 1.33 1.33 1.32 1.39 1.76 1.85 1.94 2.15 2.08 2.19 2.19 2.21 2.30 2.22 2.20 2.24 2.13 2.13 2.31 2.14 2.27 1.98 2.02 2.02 2.01 2.55 2.33 2.21 2.10 2.20 2.26 2.51 2.23 2.01 1.90 2.05 2.18 2.28 2.10 2.18 2.30 2.19 2.05 1.99
1.31 2.17 1.31 1.71 2.83 2.32 2.41 2.84 2.72 1.77 1.82 1.46 1.16 0.97 0.74 0.62 0.73 0.84 0.85 0.94 1.06 1.05 1.15 1.23 1.36 1.32 1.38 1.45 1.46 1.50 1.55 1.56 1.32 1.15 1.21 1.35 1.40 1.61 1.85 2.18 2.45 1.97 2.06 2.03 1.94 2.03 2.09 2.20 2.27 2.26 2.48 2.66 2.59 2.11 2.14 2.21 2.31 2.16 2.22 2.27 2.15 2.67 1.90 1.90 1.98 2.10 1.97 1.74 1.81 1.91 1.97 2.06 2.36 2.33
2.33 3.08 2.43 2.81 3.00 2.65 2.34 1.80 1.99 1.70 1.41 1.12 0.93 1.00 0.70 0.82 1.06 1.23 1.06 1.08 0.98 0.85 0.90 0.97 1.02 1.09 1.11 1.12 1.18 1.36 1.53 1.46 1.56 1.64 1.58 1.52 1.57 1.57 1.78 2.02 2.01 1.94 2.06 1.94 1.91 2.18 2.08 2.22 2.31 2.33 2.60 2.67 2.87 2.72 3.16 2.81 2.05 1.91 2.10 1.78 1.76 1.64 1.76 1.81 1.71 1.77 1.42 1.49 1.51 1.56 1.73 2.00 1.92 1.81
4.10 2.13 2.05 1.53 1.53 1.36 1.23 1.16 1.08 0.86 0.87 0.98 0.86 0.88 0.83 0.87 0.71 0.70 0.78 0.83 0.63 0.58 0.61 0.56 0.57 0.62 0.61 0.63 0.73 0.86 1.00 1.11 1.17 1.26 1.55 1.52 1.53 1.63 1.87 2.19 2.04 1.88 2.02 2.11 2.01 2.01 2.08 2.23 2.20 2.50 2.47 2.25 2.43 2.58 2.65 2.46 1.97 1.83 1.78 2.30 2.33 1.96 1.73 1.60 1.63 1.78 1.44 1.30 1.97 1.80 1.36 1.48 1.50 1.45
1.44 0.87 0.53 0.50 0.39 0.49 0.43 0.66 0.74 0.70 0.78 0.79 0.76 0.61 0.67 0.70 0.66 0.66 0.65 0.51 0.44 0.40 0.46 0.42 0.46 0.52 0.53 0.65 0.53 0.61 0.70 0.64 0.85 0.94 0.97 1.10 1.57 1.63 1.96 1.90 1.89 1.94 1.88 1.91 2.15 1.99 2.03 2.08 2.31 2.26 2.27 2.17 2.77 2.16 1.73 1.80 2.21 2.04 2.23 2.05 1.81 1.69 1.83 1.97 2.26 1.42 1.71 2.36 1.33 1.31 1.30 1.34 1.53 1.53
1.37 1.02 0.59 0.49 0.45 0.41 0.40 0.40 0.30 0.34 0.51 0.48 0.50 0.49 0.41 0.46 0.47 0.54 0.47 0.39 0.53 0.50 0.49 0.73 0.56 0.52 0.46 0.56 0.43 0.48 0.61 0.79 0.93 0.97 0.92 1.07 1.17 1.09 1.28 1.28 1.28 1.37 1.36 1.56 1.52 1.69 1.78 1.76 1.76 1.90 2.13 2.09 2.06 2.06 2.02 1.68 1.80 1.33 1.56 1.54 1.32 1.26 1.15 1.67 1.59 1.83 1.54 1.24 1.21 1.41 1.19 1.05 1.15 1.30
0.62 0.60 0.69 0.71 0.43 0.52 0.50 0.58 0.47 0.27 0.29 0.27 0.33 0.58 0.36 0.30 0.41 0.27 0.37 0.55 0.96 0.58 0.49 0.54 0.76 0.87 0.79 0.75 0.74 0.68 0.72 0.90 1.12 0.80 0.71 0.76 0.91 1.03 1.18 1.26 1.17 1.23 1.37 1.42 1.79 2.05 1.74 1.69 1.57 1.69 1.86 2.08 1.95 1.79 1.76 2.03 1.72 1.41 1.26 1.14 1.05 1.06 1.05 1.25 1.31 1.38 1.26 1.92 1.87 1.70 1.18 1.13 1.13 1.32
0.68 0.55 0.45 0.36 0.43 0.42 0.40 0.46 0.59 0.64 0.58 0.47 0.40 0.67 0.38 0.34 0.35 0.25 0.31 0.46 0.38 0.47 0.50 0.64 0.38 0.36 0.52 0.53 0.68 0.59 0.53 0.55 0.65 0.85 0.75 0.75 0.97 1.36 1.44 1.20 1.24 1.31 1.50 1.73 1.85 1.49 1.34 1.78 1.70 1.79 1.94 2.06 1.73 1.35 1.42 1.56 1.88 1.47 1.36 2.24 1.62 1.20 1.09 1.27 1.52 1.45 1.58 1.20 1.28 1.73 1.49 0.96 0.80 1.32
0.39 0.50 0.45 0.43 0.32 0.39 0.32 0.38 0.33 0.41 0.37 0.28 0.32 0.24 0.29 0.53 0.78 0.71 0.51 0.46 0.46 0.50 0.92 1.20 0.79 0.71 0.65 0.51 0.55 0.53 0.69 0.92 1.26 0.75 0.82 0.94 1.07 1.34 1.26 1.18 1.13 1.27 1.49 1.57 1.57 1.49 1.72 1.96 1.75 1.78 1.56 2.18 2.00 1.71 1.65 1.38 1.07 1.32 1.24 1.02 1.05 1.66 1.59 1.45 1.27 1.14 1.14 0.99 0.95 0.86 1.06 1.03 0.96 0.94
0.47 0.46 0.84 0.79 0.65 0.74 0.71 0.60 0.81 0.65 0.53 0.65 0.48 0.69 1.15 1.28 1.02 1.03 1.21 0.90 0.79 0.60 0.72 1.08 1.15 1.54 1.67 1.56 1.25 0.84 1.25 1.35 1.29 1.07 0.92 0.95 1.03 1.38 1.49 1.43 1.29 1.50 1.61 1.30 1.38 1.54 1.72 1.29 1.57 1.44 1.46 1.42 1.47 1.65 2.27 1.82 1.47 1.29 1.58 1.63 1.73 1.62 1.92 1.77 1.61 1.30 1.15 1.24 1.16 1.72 1.61 1.45 1.81 1.51
1.19 1.56 1.59 1.29 1.29 1.05 1.11 0.93 0.88 0.65 0.62 0.63 0.80 0.65 0.70 0.91 1.01 1.01 0.94 1.62 1.82 1.70 1.81 1.74 1.99 2.10 2.31 2.42 2.10 2.10 1.87 1.58 1.50 1.50 1.43 1.34 1.53 1.51 1.60 1.69 1.95 1.28 1.50 1.54 1.29 1.30 0.95 1.27 1.19 1.23 1.52 1.99 1.72 1.91 1.94 1.71 1.56 1.40 1.48 1.34 1.62 1.14 1.10 1.07 1.26 1.39 1.34 1.23 1.36 1.51 1.68 1.54 1.46 1.30
1.33 1.43 1.04 1.17 1.05 1.36 1.13 1.38 1.37 0.94 0.67 0.73 1.16 1.02 1.24 1.01 0.85 0.94 1.03 1.21 1.43 1.31 1.17 1.01 1.06 1.09 0.84 0.94 1.28 1.53 1.86 1.67 1.14 1.24 1.30 1.44 1.15 1.02 1.13 1.07 1.39 1.35 1.50 1.11 1.18 1.54 1.47 1.59 1.42 2.09 1.99 1.95 2.19 1.80 1.76 1.16 1.12 0.95 0.92 0.96 1.34 1.33 1.44 1.13 1.27 1.36 1.93 1.91 1.98 2.01 1.65 1.70 1.69 1.67
1.26 1.14 0.80 0.90 0.83 0.82 0.97 0.67 0.84 1.22 1.23 1.31 1.05 1.17 0.78 0.96 1.18 1.19 0.91 0.71 0.88 0.91 0.86 0.77 0.81 0.91 1.13 1.05 0.87 1.00 1.15 0.79 0.70 0.85 1.08 1.37 1.36 1.11 1.14 1.12 1.15 1.07 1.23 1.42 1.35 1.51 1.35 1.36 1.47 1.63 1.67 1.62 1.24 1.27 1.15 0.83 0.88 0.83 0.91 1.06 1.19 1.05 1.15 1.27 1.33 1.23 1.32 1.29 1.38 1.72 1.43 1.32 1.30 1.30
0.77 0.68 0.85 1.03 0.91 0.91 1.24 1.38 1.12 1.26 0.91 0.77 0.80 0.86 0.88 1.18 0.99 1.17 1.08 1.03 1.02 1.07 0.96 1.02 0.84 1.07 0.99 0.94 0.90 1.15 1.30 0.95 0.86 1.16 1.19 0.94 1.24 1.70 1.21 1.33 1.36 1.43 1.26 1.33 1.50 1.39 1.23 1.25 1.20 1.24 1.49 1.34 1.16 1.20 1.23 1.06 1.00 0.87 0.93 1.03 1.12 1.18 1.43 1.31 1.34 1.33 1.45 1.29 1.34 1.34 1.37 1.39 1.40 1.15
0.66 1.02 0.83 1.00 1.08 1.10 1.16 0.86 1.07 1.24 1.18 1.12 1.24 1.46 1.00 0.78 0.64 0.67 0.78 0.72 0.83 0.71 0.68 0.65 0.89 0.90 0.94 1.15 1.13 1.13 0.89 1.07 1.40 1.37 1.10 1.19 1.39 1.19 1.19 1.33 1.08 1.14 1.33 1.41 1.55 1.16 1.19 1.24 1.38 1.45 1.43 1.17 1.36 0.94 0.76 0.75 0.83 0.95 1.15 1.18 1.34 1.32 1.27 1.16 1.36 1.48 1.38 1.35 1.27 1.29 1.33 1.19 1.07 1.03